EDRS-C

Last updated on Tue Sep 16 2025 00:02:50 GMT+0000 (Coordinated Universal Time)

1 44475U 19049A 25258.57342755 -.00000278 00000+0 00000+0 0 9993 2 44475 0.0367 114.5959 0001268 73.2283 155.8977 1.00272560 22456
UTC large
Height (km)
Speed (km/s)
/
Latitude / Longitude
Inclination (degrees)
Orbital Period (minutes)
Azimuth
Elevation
Range (km)
Doppler Factor

Next 0 passes for location: London (51.5072 / 0.1276)

Sorry there are no passes over London.